Location: Gälforsberget
(66.6500°N, 22.4167°E)
Time: 21:04:35
(UTC+00:00)

Meteor 2-15 - Pass Details

Date: 11 April 2026
Orbit: 937 x 954 km, 82.5° (Epoch: 16 May)

Event Time Altitude Azimuth Distance (km) Brightness Sun altitude
Rises 20:12:20 0° 197° (SSW) 3,597 7.1 -10.7°
Reaches altitude 10° 20:14:48 10° 198° (SSW) 2,657 6.4 -10.8°
Maximum altitude 20:20:54 88° 289° (WNW) 954 4.5 -11.2°
Drops below altitude 10° 20:27:03 10° 19° (NNE) 2,682 7.4 -11.5°
Sets 20:29:34 0° 20° (NNE) 3,633 8.1 -11.6°
